Location: Lake of the Woods (North-East)
(49.6672°N, 94.8656°W)
Time: 02:42:06
(UTC-05:00)

ISS - All Passes

Search period start: 23 April 2014 00:00
Search period end: 03 May 2014 00:00
Orbit: 413 x 418 km, 51.7° (Epoch: 23 April)

Date Brightness Start Highest point End Pass type
(mag) Time Alt. Az. Time Alt. Az. Time Alt. Az.
23 Apr - 14:46:13 10° SSW 14:49:05 27° SE 14:51:58 10° E daylight
23 Apr - 16:22:13 10° WSW 16:25:34 85° NNW 16:28:56 10° ENE daylight
23 Apr - 17:59:08 10° WNW 18:02:28 60° N 18:05:48 10° E daylight
23 Apr - 19:35:56 10° WNW 19:39:16 67° SSW 19:42:36 10° ESE daylight
23 Apr - 21:13:24 10° W 21:15:32 16° SW 21:17:38 10° S visible
24 Apr - 13:58:08 10° S 14:00:29 18° SE 14:02:51 10° E daylight
24 Apr - 15:33:28 10° WSW 15:36:48 75° SSE 15:40:09 10° ENE daylight
24 Apr - 17:10:18 10° W 17:13:38 59° N 17:16:57 10° E daylight
24 Apr - 18:47:08 10° WNW 18:50:30 89° SSW 18:53:52 10° ESE daylight
24 Apr - 20:24:11 10° W 20:26:56 24° SW 20:29:40 10° SSE daylight
25 Apr - 13:10:36 10° SSE 13:11:52 12° SE 13:13:09 10° ESE daylight
25 Apr - 14:44:44 10° SW 14:48:00 53° SSE 14:51:16 10° ENE daylight
25 Apr - 16:21:23 10° W 16:24:43 63° N 16:28:03 10° ENE daylight
25 Apr - 17:58:16 10° WNW 18:01:38 74° NNE 18:04:59 10° E daylight
25 Apr - 19:35:07 10° W 19:38:12 35° SSW 19:41:17 10° SE daylight
26 Apr - 13:56:04 10° SW 13:59:09 36° SSE 14:02:16 10° E daylight
26 Apr - 15:32:24 10° W 15:35:45 72° NNW 15:39:06 10° ENE daylight
26 Apr - 17:09:19 10° WNW 17:12:39 64° N 17:15:59 10° E daylight
26 Apr - 18:46:05 10° WNW 18:49:21 50° SSW 18:52:36 10° SE daylight
26 Apr - 20:24:26 10° WSW 20:25:27 11° SW 20:26:27 10° SSW daylight
27 Apr - 13:07:31 10° SSW 13:10:17 25° SE 13:13:05 10° E daylight
27 Apr - 14:43:23 10° WSW 14:46:43 89° NNW 14:50:05 10° ENE daylight
27 Apr - 16:20:16 10° WNW 16:23:35 59° N 16:26:54 10° E daylight
27 Apr - 17:57:03 10° WNW 18:00:23 72° SSW 18:03:43 10° ESE daylight
27 Apr - 19:34:23 10° W 19:36:40 17° SW 19:38:56 10° S daylight
28 Apr - 12:19:13 10° S 12:21:24 17° SE 12:23:36 10° E daylight
28 Apr - 13:54:20 10° WSW 13:57:39 70° SSE 14:00:59 10° ENE daylight
28 Apr - 15:31:08 10° W 15:34:27 59° N 15:37:45 10° ENE daylight
28 Apr - 17:07:57 10° WNW 17:11:18 87° NNE 17:14:39 10° ESE daylight
28 Apr - 18:44:55 10° W 18:47:45 26° SW 18:50:34 10° SSE daylight
29 Apr - 11:31:48 10° SSE 11:32:30 11° SE 11:33:12 10° ESE daylight
29 Apr - 13:05:20 10° SW 13:08:33 49° SSE 13:11:48 10° ENE daylight
29 Apr - 14:41:55 10° W 14:45:14 64° N 14:48:33 10° ENE daylight
29 Apr - 16:18:47 10° WNW 16:22:07 71° NNE 16:25:27 10° E daylight
29 Apr - 17:55:35 10° W 17:58:43 38° SSW 18:01:49 10° SE daylight
30 Apr - 12:16:24 10° SSW 12:19:25 33° SSE 12:22:28 10° E daylight
30 Apr - 13:52:37 10° W 13:55:57 76° NNW 13:59:18 10° ENE daylight
30 Apr - 15:29:31 10° WNW 15:32:50 62° N 15:36:09 10° E daylight
30 Apr - 17:06:16 10° WNW 17:09:33 55° SSW 17:12:49 10° SE daylight
30 Apr - 18:44:12 10° WSW 18:45:40 12° SW 18:47:07 10° SSW daylight
01 May - 11:27:37 10° SSW 11:30:16 22° SE 11:32:56 10° E daylight
01 May - 13:03:18 10° WSW 13:06:38 86° SSE 13:09:59 10° ENE daylight
01 May - 14:40:10 10° W 14:43:28 59° N 14:46:46 10° E daylight
01 May - 16:16:56 10° WNW 16:20:16 77° SSW 16:23:36 10° ESE daylight
01 May - 17:54:07 10° W 17:56:34 19° SW 17:58:59 10° S daylight
02 May - 10:39:10 10° S 10:41:06 15° SE 10:43:02 10° ESE daylight
02 May - 12:13:59 10° WSW 12:17:17 64° SSE 12:20:35 10° ENE daylight
02 May - 13:50:43 10° W 13:54:01 60° N 13:57:20 10° ENE daylight
02 May - 15:27:32 10° WNW 15:30:52 82° NNE 15:34:13 10° ESE daylight
02 May - 17:04:25 10° W 17:07:20 28° SW 17:10:14 10° SSE daylight
